Columbia Owens, SC

12:22 AM EDT on May 30, 2017 (GMT -0400)
Columbia Owens Downtown

Weather History for KCUB - April, 2014

Change the Weather History Date:

Friday, April 18, 2014

  Actual Average Record
Temperature  
Mean Temperature 56 °F 65 °F  
Max Temperature 61 °F 77 °F 91 °F (2002)
Min Temperature 51 °F 53 °F 37 °F (2001)
Degree Days  
Heating Degree Days 9 3  
Month to date heating degree days 61 74  
Since 1 July heating degree days 2445 2277  
Cooling Degree Days 0 3  
Month to date cooling degree days 39 41  
Year to date cooling degree days 47 59  
Growing Degree Days 6 (Base 50)    
Moisture  
Dew Point 47 °F    
Average Humidity 75    
Maximum Humidity 93    
Minimum Humidity 51    
Precipitation  
Precipitation 1.25 in 0.09 in 1.25 in (2014)
Month to date precipitation 2.09 1.71  
Year to date precipitation 12.36 12.87  
Sea Level Pressure  
Sea Level Pressure 30.25 in    
Wind  
Wind Speed 6 mph (NE)    
Max Wind Speed 12 mph    
Max Gust Speed 23 mph    
Visibility 7 miles    
Events Rain    
T = Trace of Precipitation, MM = Missing Value Source: NWS Daily Summary

Daily Weather History Graph

Daily Weather History Graph

Search for Another Location

Airport or City:

Trip Planner

Search our weather history database for the weather conditions in past years. The results will help you decide how hot, cold, wet, or windy it might be!

Date:

Astronomy

Apr. 18, 2014 Rise Set
Actual Time 6:49 AM EDT 7:57 PM EDT
Civil Twilight 6:23 AM EDT 8:23 PM EDT
Nautical Twilight 5:52 AM EDT 8:54 PM EDT
Astronomical Twilight 5:21 AM EDT 9:26 PM EDT
Moon 11:35 PM EDT (4/18) 9:16 AM EDT (4/18)
Length of Visible Light 13h 59m
Length of Day
13h 08m
Waning Gibbous, 87% of the Moon is Illuminated
Apr 18
Waning Gibbous
Apr 22
Last Quarter
Apr 29
New
May 6
First Quarter
May 14
Full

Hourly Weather History & Observations

Time (EDT) Temp. Dew Point Humidity Pressure Visibility Wind Dir Wind Speed Gust Speed Precip Events Conditions
12:53 AM 55.0 °F 42.1 °F 62% 30.38 in 10.0 mi NE 4.6 mph - N/A   Clear
1:53 AM 53.1 °F 42.1 °F 66% 30.36 in 10.0 mi Variable 3.5 mph - N/A   Clear
2:53 AM 53.1 °F 42.1 °F 66% 30.36 in 10.0 mi ENE 3.5 mph - N/A   Clear
3:53 AM 53.1 °F 43.0 °F 69% 30.34 in 10.0 mi ENE 5.8 mph - N/A   Clear
4:53 AM 52.0 °F 43.0 °F 71% 30.34 in 10.0 mi Variable 3.5 mph - N/A   Clear
5:53 AM 51.1 °F 43.0 °F 74% 30.34 in 10.0 mi ENE 6.9 mph - N/A   Clear
6:53 AM 51.1 °F 43.0 °F 74% 30.34 in 10.0 mi Variable 5.8 mph - N/A   Clear
7:53 AM 51.1 °F 42.1 °F 71% 30.36 in 10.0 mi ENE 8.1 mph - N/A   Clear
8:53 AM 54.0 °F 42.1 °F 64% 30.35 in 10.0 mi Variable 4.6 mph - N/A   Partly Cloudy
9:53 AM 57.0 °F 42.1 °F 57% 30.36 in 10.0 mi Variable 5.8 mph - N/A   Mostly Cloudy
10:53 AM 59.0 °F 42.1 °F 53% 30.36 in 10.0 mi Variable 4.6 mph - N/A   Mostly Cloudy
11:53 AM 60.1 °F 42.1 °F 51% 30.35 in 10.0 mi Variable 4.6 mph - N/A   Overcast
12:53 PM 60.1 °F 42.1 °F 51% 30.30 in 10.0 mi Variable 5.8 mph - N/A   Mostly Cloudy
1:53 PM 61.0 °F 43.0 °F 52% 30.28 in 10.0 mi NE 8.1 mph - N/A   Mostly Cloudy
2:53 PM 61.0 °F 43.0 °F 52% 30.24 in 10.0 mi Variable 3.5 mph - N/A   Overcast
3:53 PM 57.0 °F 48.0 °F 72% 30.21 in 7.0 mi Variable 3.5 mph - 0.02 in Rain Light Rain
4:53 PM 55.9 °F 51.1 °F 84% 30.21 in 4.0 mi Calm Calm - 0.05 in Rain Rain
5:53 PM 55.0 °F 52.0 °F 89% 30.20 in 6.0 mi Variable 3.5 mph - 0.06 in Rain Light Rain
6:12 PM 55.0 °F 51.1 °F 86% 30.20 in 2.5 mi Calm Calm - 0.05 in Rain Rain
6:19 PM 55.0 °F 51.1 °F 86% 30.22 in 4.0 mi Calm Calm - 0.06 in Rain Rain
6:53 PM 55.0 °F 51.1 °F 86% 30.20 in 4.0 mi Variable 5.8 mph - 0.13 in Rain Rain
7:48 PM 53.6 °F 51.8 °F 94% 30.16 in 2.0 mi NE 6.9 mph - 0.09 in Rain Heavy Rain
8:53 PM 54.0 °F 50.0 °F 86% 30.14 in 3.0 mi NNE 9.2 mph 18.4 mph 0.16 in Rain Heavy Rain
9:14 PM 54.0 °F 50.0 °F 86% 30.16 in 4.0 mi Variable 4.6 mph - 0.04 in Rain Rain
9:16 PM 54.0 °F 50.0 °F 86% 30.16 in 4.0 mi Variable 3.5 mph - 0.04 in Rain Rain
9:23 PM 54.0 °F 50.0 °F 86% 30.16 in 3.0 mi Variable 6.9 mph - 0.07 in Rain Rain
9:36 PM 54.0 °F 50.0 °F 86% 30.16 in 3.0 mi North - - 0.10 in Rain Rain
9:42 PM 53.1 °F 50.0 °F 89% 30.17 in 2.5 mi Variable 3.5 mph - 0.13 in Rain Heavy Rain
9:53 PM 53.1 °F 50.0 °F 89% 30.16 in 2.5 mi Variable 5.8 mph - 0.16 in Rain Rain
10:31 PM 53.1 °F 50.0 °F 89% 30.14 in 3.0 mi NE 6.9 mph - 0.14 in Rain Rain
11:13 PM 53.1 °F 50.0 °F 89% 30.11 in 3.0 mi Variable 4.6 mph - 0.07 in Rain Rain
11:53 PM 53.1 °F 50.0 °F 89% 30.08 in 3.0 mi Variable 6.9 mph - 0.17 in Rain Heavy Rain